CST,Max TemperatureF,Mean TemperatureF,Min TemperatureF,Max Dew PointF,MeanDew PointF,Min DewpointF,Max Humidity, Mean Humidity, Min Humidity, Max Sea Level PressureIn, Mean Sea Level PressureIn, Min Sea Level PressureIn, Max VisibilityMiles, Mean VisibilityMiles, Min VisibilityMiles, Max Wind SpeedMPH, Mean Wind SpeedMPH, Max Gust SpeedMPH,PrecipitationIn, CloudCover, Events, WindDirDegrees
2013-1-1,25,18,11,18,12,6,84,72,59,30.26,30.21,30.12,10,9,5,16,9,18,0.00,2,,333
2013-1-2,24,16,7,12,8,3,88,72,55,30.30,30.25,30.21,10,9,6,15,7,17,0.00,0,,211
2013-1-3,35,25,15,26,19,9,88,78,67,30.39,30.30,30.21,10,9,5,15,9,20,0.00,6,,261
2013-1-4,35,24,13,23,18,9,84,72,59,30.41,30.36,30.32,10,10,9,20,9,25,0.00,0,,240
2013-1-5,37,29,21,31,25,17,87,77,69,30.32,30.22,30.07,10,9,1,15,8,21,0.00,5,Snow,214
2013-1-6,37,27,17,30,22,14,84,74,63,30.40,30.22,30.03,10,8,3,26,11,86,0.00,5,,285
2013-1-7,39,28,18,25,21,14,89,77,55,30.42,30.32,30.19,10,8,4,17,8,22,0.00,0,,187
2013-1-8,46,36,26,34,27,22,85,72,51,30.24,30.18,30.14,10,8,4,15,8,23,0.00,1,,184
2013-1-9,52,39,26,35,31,25,92,68,44,30.52,30.37,30.16,10,10,10,46,7,,0.00,1,,282
2013-1-10,53,40,28,43,33,24,100,84,67,30.51,30.15,29.83,10,5,0,18,10,24,0.21,6,Fog-Rain,117
2013-1-11,58,54,49,53,48,46,100,86,72,29.87,29.81,29.75,10,9,2,25,16,32,0.08,4,Rain,195
2013-1-12,58,45,31,49,38,30,96,80,63,29.96,29.89,29.82,10,7,2,23,12,30,0.56,5,Rain,331
2013-1-13,31,24,16,30,20,10,92,83,73,30.36,30.08,29.89,10,8,2,23,13,29,T,7,Rain-Snow,314
2013-1-14,25,20,14,16,13,9,88,78,68,30.50,30.45,30.38,10,10,9,16,6,20,0.00,1,,344
2013-1-15,31,21,11,22,17,8,92,81,69,30.45,30.34,30.16,10,9,6,15,7,17,0.00,2,,38
2013-1-16,37,28,19,26,21,17,92,72,51,30.15,30.09,30.00,10,8,4,21,8,25,0.00,3,,240
2013-1-17,38,31,23,28,23,17,85,69,52,30.48,30.31,30.13,10,9,6,22,9,26,0.00,2,,334
2013-1-18,44,32,19,29,23,16,88,67,45,30.50,30.32,30.11,10,10,10,29,16,38,0.00,0,,201
2013-1-19,56,47,37,37,31,27,70,60,50,30.11,30.00,29.88,10,10,10,28,18,39,0.00,0,,230
2013-1-20,41,30,19,25,13,8,71,59,46,30.35,30.29,30.09,10,9,2,30,11,39,T,5,Snow,313
2013-1-21,19,13,7,13,2,-5,74,57,40,30.40,30.31,30.24,10,10,7,24,16,38,T,3,Snow,296
2013-1-22,16,10,4,-1,-3,-5,76,58,40,30.48,30.43,30.40,10,10,10,15,9,22,0.00,1,,291
2013-1-23,35,24,12,18,9,-1,63,52,40,30.39,30.27,30.14,10,10,10,22,9,30,0.00,4,,263
2013-1-24,26,18,9,7,4,-2,63,52,40,30.65,30.50,30.35,10,10,9,24,12,30,T,1,,61
2013-1-25,37,29,21,19,15,2,71,54,36,30.29,30.16,30.06,10,9,2,18,9,53,0.01,5,Snow,204
2013-1-26,34,24,14,18,12,8,74,57,39,30.43,30.36,30.23,10,10,9,22,6,,0.00,0,,45
2013-1-27,44,31,18,41,31,15,100,82,63,30.38,30.13,29.97,10,5,2,35,14,32,0.10,7,Rain,154
2013-1-28,61,54,46,58,52,42,100,92,84,29.98,29.93,29.87,7,4,1,21,16,25,0.02,8,Rain,195
2013-1-29,65,59,52,58,55,51,100,87,73,29.85,29.62,29.45,10,7,2,10,20,13,1.00,8,Rain-Thunderstorm,208
2013-1-30,53,39,24,52,35,15,100,84,68,29.81,29.47,29.33,10,8,1,35,18,46,0.17,8,Rain-Snow,252
2013-1-31,27,17,7,19,11,-4,74,65,55,30.29,30.01,29.80,10,7,0,29,16,34,T,7,Snow,290